Flag for U.S.A. Weather past 2 weeks in Aspen, Colorado, U.S.A.

Now
72 °F

Passing clouds.


Feels Like: 76 °F
Forecast: 46 / 75 °F
Wind: 13 mph from Northwest

Location: Aspen-Pitkin County Airport

Current Time: Sep 15, 2014 at 7:03:30 PM

Latest Report: Sep 15, 2014 at 5:53 PM


Visibility: 10 mi

Pressure: 30.02 "Hg

Humidity: 25%

Dew point: 34 °F

Location of AspenLocation

Historic Weather in Aspen — Graph

°F

Aspen temperature yesterday

Maximum temperature yesterday: 73 °F (at 2:53 PM)
Minimum temperature yesterday: 42 °F (at 6:53 AM)
Average temperature yesterday: 57 °F

Past Weeks' High & Low Weather Summary

 TemperatureHumidityPressure
High80 °F (Sep 3, 3:53 PM)97% (Sep 9, 4:53 AM)30.35 "Hg (Sep 9, 4:53 AM)
Low35 °F (Sep 12, 5:53 AM)13% (Sep 3, 2:53 PM)29.68 "Hg (Aug 31, 5:53 PM)
Average56 °F54%29.96 "Hg
* Reported Aug 31 5:53 PM — Sep 15 5:53 PM, Aspen, Weather by CustomWeather, © 2014

Note: Actual official high and low records may vary slightly from our data, if they occured in-between our weather recording intervals... More about our weather records

Advertising

Aspen weather history for previous 24 hours

 ConditionsComfort  
Time TempWeatherWind HumidityBarometerVisibility
5:53 PM
Sep 15
72 °FPassing clouds.13 mph25%30.02 "Hg10 mi
4:53 PM75 °FSunny.10 mph22%30.00 "Hg10 mi
3:58 PM76 °FSunny.10 mph21%30.33 "Hg10 mi
2:53 PM72 °FPartly sunny.12 mph22%30.01 "Hg10 mi
2:03 PM73 °FPartly sunny.12 mph19%30.35 "Hg10 mi
1:53 PM75 °FPartly sunny.9 mph19%30.00 "Hg10 mi
12:53 PM71 °FScattered clouds.6 mph24%30.05 "Hg10 mi
11:53 AM72 °FPassing clouds.6 mph29%30.04 "Hg10 mi
10:53 AM66 °FSunny.5 mph34%30.08 "Hg10 mi
9:53 AM61 °FSunny.5 mph41%30.09 "Hg10 mi
8:53 AM56 °FSunny.No wind47%30.11 "Hg10 mi
7:53 AM47 °FSunny.No wind66%30.13 "Hg10 mi
6:53 AM45 °FClear.5 mph65%30.11 "Hg10 mi
5:53 AM45 °FClear.8 mph65%30.07 "Hg10 mi
4:53 AM45 °FClear.7 mph65%30.05 "Hg10 mi
3:53 AM47 °FClear.6 mph61%30.04 "Hg10 mi
2:53 AM47 °FClear.6 mph61%30.02 "Hg10 mi
1:53 AM48 °FClear.8 mph59%30.03 "Hg10 mi
12:53 AM47 °FClear.8 mph64%30.01 "Hg10 mi
11:53 PM
Sep 14
49 °FClear.7 mph61%30.00 "Hg10 mi
10:53 PM50 °FClear.9 mph61%29.99 "Hg10 mi
9:53 PM52 °FClear.8 mph57%30.01 "Hg10 mi
8:53 PM55 °FClear.9 mph53%30.01 "Hg10 mi
7:53 PM58 °FPassing clouds.7 mph50%30.01 "Hg10 mi
Weather by CustomWeather, © 2014

See weather overviewHow to use our weather pages